Home   Weather   Wellingborough   Past weeks
Flag for United Kingdom

Past Weather in Wellingborough, England, United Kingdom — Yesterday and Last 2 Weeks

Now
44 °F

Quite cool.


Feels Like: 40 °F
Forecast: 54 / 45 °F
Wind: 6 mph from West

Location: Bedford

Current Time: Oct 20, 2019 at 1:51:18 am

Latest Report: Oct 20, 2019 at 1:00 am


Visibility: 13 mi

Pressure: 29.71 "Hg

Humidity: 97%

Dew Point: 43 °F

Location of WellingboroughLocation

Past Weather in Wellingborough — Graph

°F

Wellingborough Temperature Yesterday

Maximum temperature yesterday: 56 °F (at 3:00 pm)
Minimum temperature yesterday: 45 °F (at 11:00 pm)
Average temperature yesterday: 50 °F

High & Low Weather Summary for the Past Weeks

 TemperatureHumidityPressure
High61 °F (Oct 11, 4:00 pm)100% (Oct 6, 4:00 am)30.05 "Hg (Oct 6, 4:00 am)
Low40 °F (Oct 17, 6:00 am)60% (Oct 9, 2:00 pm)29.41 "Hg (Oct 18, 6:00 am)
Average52 °F88%29.70 "Hg
* Reported Oct 5 1:00 am — Oct 20 1:00 am, Wellingborough. Weather by CustomWeather, © 2019

Note: Actual official high and low records may vary slightly from our data, if they occured in-between our weather recording intervals... More about our weather records

Advertising

Wellingborough Weather History for the Previous 24 Hours

Scroll right to see more
 ConditionsComfort  
Time TempWeatherWind HumidityBarometerVisibility
1:00 am
Sun, Oct 20
44 °FQuite cool.6 mph97%29.71 "Hg12 mi
12:00 am44 °FQuite cool.8 mph95%29.69 "Hg11 mi
11:00 pm
Sat, Oct 19
45 °FQuite cool.6 mph92%29.67 "Hg28 mi
10:00 pm46 °FCool.6 mph91%29.66 "Hg31 mi
9:00 pm47 °FCool.5 mph90%29.63 "Hg31 mi
8:00 pm50 °FCool.5 mph85%29.61 "Hg31 mi
7:00 pm52 °FCool.6 mph81%29.60 "Hg31 mi
6:00 pm52 °FCool.5 mph78%29.58 "Hg31 mi
5:00 pm55 °FCool.9 mph67%29.56 "Hg31 mi
4:00 pm56 °FCool.8 mph68%29.54 "Hg31 mi
3:00 pm56 °FCool.10 mph69%29.53 "Hg28 mi
2:00 pm54 °FCool.9 mph71%29.50 "Hg31 mi
1:00 pm56 °FCool.12 mph68%29.50 "Hg31 mi
12:00 pm52 °FCool.10 mph77%29.50 "Hg31 mi
11:00 am52 °FCool.12 mph82%29.47 "Hg31 mi
10:00 am50 °FCool.8 mph89%29.47 "Hg17 mi
9:00 am47 °FCool.10 mph94%29.47 "Hg19 mi
8:00 am46 °FCool.8 mph95%29.44 "Hg17 mi
7:00 am46 °FCool.7 mph95%29.44 "Hg16 mi
6:00 am47 °FCool.8 mph93%29.44 "Hg15 mi
5:00 am47 °FCool.7 mph93%29.44 "Hg12 mi
4:00 am47 °FCool.9 mph94%29.44 "Hg13 mi
3:00 am49 °FCool.9 mph89%29.44 "Hg15 mi
2:00 am49 °FCool.12 mph89%29.44 "Hg16 mi
1:00 am49 °FCool.12 mph88%29.44 "Hg17 mi
Weather by CustomWeather, © 2019

See weather overview